Location: Amsterdam
(30.7274°N, 84.4357°W)
Time: 22:35:57
(UTC+00:00)

MOZHAYETS 4 - Visible Passes

Search period start: 14 March 2026 00:00
Search period end: 24 March 2026 00:00
Orbit: 643 x 658 km, 98.3° (Epoch: 14 March)

Date Brightness Start Highest point End Pass type
(mag) Time Alt. Az. Time Alt. Az. Time Alt. Az.
14 Mar 10.5 00:19:02 10° NNW 00:22:23 21° WNW 00:25:44 10° WSW visible
14 Mar 10.8 09:37:05 10° E 09:39:17 13° ENE 09:41:29 10° NE visible
14 Mar 8.0 11:11:13 10° S 11:15:31 44° W 11:19:51 10° NNW visible
15 Mar 11.2 00:47:57 10° NW 00:48:48 10° WNW 00:49:39 10° WNW visible
15 Mar 9.9 10:01:59 10° SE 10:05:44 26° ENE 10:09:30 10° NNE visible
16 Mar 8.5 10:27:53 10° SSE 10:32:17 54° ENE 10:36:42 10° N visible
17 Mar 7.6 10:54:25 10° S 10:58:55 72° WSW 11:03:26 10° NNW visible
18 Mar 10.7 00:29:34 10° NNW 00:32:23 17° WNW 00:35:12 10° WSW visible
18 Mar 10.6 09:46:21 10° ESE 09:49:16 17° ENE 09:52:12 10° NNE visible
19 Mar 9.5 10:11:42 10° SE 10:15:45 34° ENE 10:19:49 10° N visible
20 Mar 8.0 10:37:49 10° SSE 10:42:19 71° ENE 10:46:49 10° N visible
21 Mar 10.2 00:12:13 10° NNW 00:15:54 26° WNW 00:19:33 10° SW visible
21 Mar 11.1 09:31:41 10° E 09:32:50 11° ENE 09:33:58 10° NE visible
21 Mar 7.8 11:04:33 10° S 11:08:57 54° W 11:13:24 10° NNW visible
22 Mar 11.0 00:40:18 10° NW 00:42:19 13° WNW 00:44:21 10° W visible
22 Mar 10.3 09:55:47 10° ESE 09:59:14 22° ENE 10:02:40 10° NNE visible
23 Mar 9.0 10:21:28 10° SE 10:25:43 43° ENE 10:30:00 10° N visible
